Springfield, VT

10:36 PM EDT on June 22, 2017 (GMT -0400)
Hartness State

Weather History for KVSF - November, 2013

Change the Weather History Date:

Saturday, November 23, 2013

  Actual Average Record
Temperature  
Mean Temperature 35 °F 34 °F  
Max Temperature 46 °F 43 °F 68 °F (1999)
Min Temperature 24 °F 26 °F 12 °F (2000)
Degree Days  
Heating Degree Days 30 30  
Month to date heating degree days 628 608  
Since 1 July heating degree days 1403 1417  
Cooling Degree Days 0 0  
Month to date cooling degree days 0  
Year to date cooling degree days 345  
Moisture  
Dew Point 21 °F    
Average Humidity 70    
Maximum Humidity 100    
Minimum Humidity 40    
Precipitation  
Precipitation T in 0.12 in 0.39 in (2011)
Month to date precipitation 1.44 3.05  
Year to date precipitation 33.88 39.60  
Sea Level Pressure  
Sea Level Pressure 29.85 in    
Wind  
Wind Speed 11 mph (West)    
Max Wind Speed 22 mph    
Max Gust Speed 34 mph    
Visibility 7 miles    
Events Snow    
T = Trace of Precipitation, MM = Missing Value Source: NWS Daily Summary

Daily Weather History Graph

Daily Weather History Graph

Search for Another Location

Airport or City:

Trip Planner

Search our weather history database for the weather conditions in past years. The results will help you decide how hot, cold, wet, or windy it might be!

Date:

Astronomy

Nov. 23, 2013 Rise Set
Actual Time 6:53 AM EST 4:19 PM EST
Civil Twilight 6:22 AM EST 4:50 PM EST
Nautical Twilight 5:47 AM EST 5:25 PM EST
Astronomical Twilight 5:13 AM EST 5:59 PM EST
Moon 9:48 PM EST 11:05 AM EST
Length of Visible Light 10h 28m
Length of Day
9h 25m
Waning Gibbous, 70% of the Moon is Illuminated
Nov 23
Waning Gibbous
Nov 25
Last Quarter
Dec 2
New
Dec 9
First Quarter
Dec 17
Full

Hourly Weather History & Observations

Time (EST) Temp. Windchill Dew Point Humidity Pressure Visibility Wind Dir Wind Speed Gust Speed Precip Events Conditions
12:03 AM 37.0 °F - 37.0 °F 100% 29.80 in 2.5 mi Calm Calm - N/A   Overcast
12:46 AM 45.0 °F 37.9 °F 37.0 °F 74% 29.80 in 8.0 mi West 16.1 mph 27.6 mph 0.00 in   Mostly Cloudy
12:54 AM 45.0 °F 38.5 °F 36.0 °F 71% 29.82 in 10.0 mi West 13.8 mph 21.9 mph 0.00 in   Scattered Clouds
1:54 AM 42.1 °F 40.2 °F 36.0 °F 79% 29.85 in 10.0 mi Variable 3.5 mph - 0.00 in   Scattered Clouds
2:54 AM 41.0 °F 38.0 °F 33.1 °F 73% 29.85 in 10.0 mi Variable 4.6 mph - N/A   Mostly Cloudy
3:54 AM 39.0 °F 34.0 °F 28.9 °F 67% 29.88 in 10.0 mi Variable 6.9 mph - N/A   Partly Cloudy
4:54 AM 37.0 °F 30.4 °F 26.1 °F 65% 29.91 in 10.0 mi NW 9.2 mph 20.7 mph N/A   Mostly Cloudy
5:54 AM 34.0 °F 31.0 °F 24.1 °F 67% 29.93 in 10.0 mi Variable 3.5 mph - N/A   Partly Cloudy
6:54 AM 33.1 °F 24.9 °F 21.9 °F 64% 29.94 in 10.0 mi WNW 10.4 mph 24.2 mph N/A   Partly Cloudy
7:54 AM 33.1 °F 23.0 °F 21.0 °F 61% 29.96 in 10.0 mi West 15.0 mph - N/A   Clear
8:54 AM 32.0 °F - 19.9 °F 61% 29.97 in 10.0 mi North - - N/A   Mostly Cloudy
9:54 AM 33.1 °F - 19.9 °F 59% 29.98 in 10.0 mi North - - N/A   Mostly Cloudy
10:54 AM 35.1 °F 26.4 °F 18.0 °F 50% 29.95 in 10.0 mi WNW 12.7 mph 17.3 mph N/A   Clear
11:54 AM 36.0 °F 26.7 °F 16.0 °F 44% 29.91 in 10.0 mi West 15.0 mph 21.9 mph N/A   Clear
12:54 PM 36.0 °F 28.0 °F 16.0 °F 44% 29.88 in 10.0 mi West 11.5 mph - N/A   Scattered Clouds
1:54 PM 36.0 °F 27.1 °F 14.0 °F 41% 29.85 in 10.0 mi West 13.8 mph 25.3 mph N/A   Mostly Cloudy
2:54 PM 36.0 °F 29.0 °F 16.0 °F 44% 29.83 in 10.0 mi West 9.2 mph 19.6 mph N/A   Overcast
3:54 PM 36.0 °F 29.0 °F 14.0 °F 41% 29.80 in 10.0 mi West 9.2 mph - N/A   Overcast
4:54 PM 33.1 °F 26.9 °F 14.0 °F 46% 29.79 in 10.0 mi Variable 6.9 mph - N/A   Mostly Cloudy
5:39 PM 32.0 °F 21.2 °F 21.9 °F 66% 29.79 in 1.8 mi West 16.1 mph 27.6 mph 0.00 in Snow Light Snow
5:43 PM 30.0 °F 18.7 °F 25.0 °F 82% 29.79 in 0.8 mi West 16.1 mph 27.6 mph 0.00 in Snow Light Snow
5:50 PM 30.2 °F 22.6 °F 24.8 °F 80% 29.78 in 1.2 mi WSW 8.1 mph 19.6 mph 0.00 in Snow Light Snow
5:54 PM 30.0 °F 23.2 °F 25.0 °F 82% 29.81 in 3.0 mi WSW 6.9 mph - 0.00 in Snow Light Snow
6:54 PM 30.9 °F 24.3 °F 19.0 °F 61% 29.81 in 9.0 mi WNW 6.9 mph 20.7 mph 0.00 in Snow Light Snow
7:54 PM 30.0 °F 19.5 °F 10.9 °F 45% 29.81 in 10.0 mi West 13.8 mph 27.6 mph 0.00 in   Mostly Cloudy
8:54 PM 28.0 °F 16.5 °F 10.9 °F 49% 29.83 in 10.0 mi WNW 15.0 mph 25.3 mph 0.00 in   Partly Cloudy
9:54 PM 27.0 °F 13.9 °F 10.9 °F 51% 29.83 in 10.0 mi West 18.4 mph 26.5 mph N/A   Mostly Cloudy
10:18 PM 25.0 °F 13.1 °F 17.1 °F 72% 29.81 in 2.0 mi West 13.8 mph 20.7 mph 0.00 in Snow Light Snow
10:28 PM 24.1 °F 11.5 °F 18.0 °F 77% 29.81 in 1.5 mi West 15.0 mph 24.2 mph 0.00 in Snow Light Snow
10:39 PM 24.1 °F 13.1 °F 18.0 °F 77% 29.81 in 3.0 mi West 11.5 mph 21.9 mph 0.00 in Snow Light Snow
10:54 PM 24.1 °F 12.0 °F 18.0 °F 77% 29.83 in 2.5 mi West 13.8 mph - 0.00 in Snow Light Snow
11:04 PM 24.1 °F 12.5 °F 18.0 °F 77% 29.81 in 1.5 mi WNW 12.7 mph 19.6 mph 0.00 in Snow Light Snow
11:14 PM 24.1 °F 14.4 °F 17.1 °F 75% 29.81 in 3.0 mi WNW 9.2 mph - 0.00 in Snow Light Snow
11:54 PM 24.1 °F 12.5 °F 10.9 °F 57% 29.82 in 10.0 mi WNW 12.7 mph 18.4 mph 0.00 in   Partly Cloudy